GFSGL_con_3kmhel_009.txt.gz
Helicity
32 43 51 55 59 62 39 28 14 5 8 5 6 33 44 32 28 34 39 55 72 97 103 119 146 147 143 137 144 123 92 111 59 73 70 99 103 130 169 130 142 141 131
28 37 43 40 42 50 42 23 17 7 13 7 16 16 33 54 64 46 50 59 77 113 128 137 132 139 141 134 130 117 114 84 69 87 112 131 148 98 81 103 122 103 125
28 49 58 52 41 38 41 31 21 4 2 9 22 34 23 37 63 86 97 100 111 112 111 90 80 118 150 149 152 146 148 137 138 123 138 167 123 107 136 131 124 126 176
40 40 50 55 62 50 47 43 34 18 18 21 40 55 54 46 49 65 102 125 148 154 149 169 157 133 154 172 174 165 177 166 187 182 169 169 134 129 121 162 133 208 198
57 40 36 67 78 81 70 63 58 63 35 24 21 33 36 39 28 43 65 77 103 137 163 190 205 211 186 144 129 152 119 109 102 74 110 101 110 130 120 135 141 164 149
56 54 102 134 151 120 113 92 73 64 43 44 41 41 53 37 45 55 50 61 67 57 71 98 102 116 132 129 131 138 136 91 89 94 64 89 77 96 125 140 174 159 138
97 121 184 225 213 163 133 101 83 65 53 53 45 39 42 30 46 50 56 54 62 52 43 38 48 68 89 121 138 146 167 182 172 100 110 125 124 145 98 85 119 113 122
145 153 264 327 278 210 153 116 102 76 80 66 66 52 40 33 61 85 104 89 93 91 82 68 86 66 56 62 106 143 169 169 133 108 90 85 87 118 75 80 65 127 160
187 226 329 392 320 229 183 132 112 113 104 83 78 91 98 82 90 111 116 100 114 126 146 124 92 89 92 100 127 129 113 79 94 101 87 116 110 101 100 72 89 97 104
208 261 324 374 278 237 218 188 146 135 131 121 141 140 147 128 116 128 113 91 133 137 180 171 161 131 136 108 111 105 122 94 70 67 86 147 123 115 166 149 125 139 136
216 305 439 375 313 279 266 212 164 156 142 141 172 170 194 176 159 168 146 119 105 157 162 174 186 200 184 167 119 81 48 41 77 62 108 132 147 147 147 130 128 139 112
190 263 339 359 336 329 316 281 249 206 216 153 181 215 221 219 174 183 173 141 118 120 140 146 142 171 189 137 144 140 115 104 97 102 113 130 117 117 146 117 130 115 123
199 213 216 285 337 356 394 404 320 260 178 167 187 166 194 162 150 186 168 167 155 137 124 145 149 146 140 159 217 224 179 140 138 145 133 116 100 89 94 84 90 105 112
192 188 144 222 262 292 385 257 262 195 131 187 194 154 150 140 152 116 144 149 141 137 134 119 95 108 151 136 140 139 125 122 115 119 123 98 82 90 89 77 81 87 84
142 136 148 157 154 187 231 144 126 142 151 124 113 112 123 128 104 99 136 125 98 87 100 113 110 101 111 119 123 122 115 118 115 82 78 71 71 72 68 65 62 67 82
84 67 74 81 73 114 123 182 232 174 160 125 140 104 123 112 112 137 128 114 101 92 127 107 103 101 93 70 72 64 67 79 79 70 69 68 75 78 72 74 74 81 80
79 65 61 61 55 44 71 89 123 145 149 149 126 130 132 125 137 132 112 122 105 103 93 68 60 59 50 51 52 49 54 59 54 72 78 70 59 66 83 91 79 74 71
46 24 10 -1 -2 -2 6 15 22 34 56 90 121 121 135 141 133 115 88 86 68 62 34 29 39 41 41 46 49 57 62 54 58 72 80 69 60 67 84 99 95 81 70
-22 -39 -23 -19 -22 -27 -35 -29 -11 1 14 29 55 77 88 101 88 75 36 54 40 31 29 31 24 30 27 34 49 61 64 58 69 78 76 65 64 66 75 74 76 68 66
-54 -23 -12 -11 -7 3 -6 -9 0 16 10 15 29 37 42 52 67 57 43 43 49 42 35 38 30 27 36 44 48 61 69 74 85 84 70 54 45 46 56 65 51 44 51
-34 -17 0 -4 7 29 34 9 0 7 6 1 1 3 9 29 28 27 30 41 53 47 40 43 45 33 38 46 44 38 53 62 65 74 75 60 37 44 48 38 24 20 41
3 13 15 20 29 41 71 62 50 33 7 14 16 22 11 17 20 42 52 47 33 29 34 41 40 41 48 47 47 50 55 57 65 74 70 58 38 36 40 33 27 52 64
-2 13 27 51 88 79 64 69 82 85 21 7 27 24 27 25 29 47 53 40 36 46 45 39 31 39 47 37 57 69 71 71 67 75 68 52 36 38 32 27 33 57 40
22 38 56 90 140 149 109 95 85 63 43 35 38 25 16 32 30 40 52 42 48 56 52 48 56 67 50 59 43 36 44 57 70 69 63 55 49 41 27 27 36 26 3
77 57 84 138 145 165 172 154 124 86 66 66 55 56 43 52 51 58 69 53 60 68 52 72 81 71 60 34 26 31 40 64 62 60 58 55 48 45 37 25 20 15 21
71 79 88 109 143 156 134 144 143 148 125 102 97 96 100 105 92 102 109 104 86 60 54 93 95 82 70 57 48 50 58 57 53 56 58 48 43 30 27 18 7 22 25

GFSGL_con_3kmhel_015.txt.gz
Helicity
27 32 46 46 46 44 38 36 37 27 27 -4 6 -1 -6 -10 -12 21 25 27 28 32 42 48 55 69 81 83 84 99 112 132 124 159 156 96 109 122 166 161 156 167 180
21 30 44 48 39 39 38 38 34 28 31 12 21 10 2 -2 11 31 29 29 27 29 41 46 55 66 66 85 109 126 121 121 126 129 107 121 127 163 171 164 191 243 206
17 22 33 42 49 55 38 41 39 30 30 38 28 23 22 16 14 27 42 56 65 71 80 84 83 74 87 98 108 117 103 99 68 87 80 70 114 123 172 169 166 151 145
8 2 0 16 26 54 55 45 50 37 36 35 30 36 36 38 35 34 46 58 78 91 99 78 79 66 60 65 62 66 59 99 125 118 90 104 93 33 66 106 104 160 137
5 8 12 30 40 54 68 63 57 51 34 27 28 39 46 52 37 43 48 63 78 94 109 105 104 121 148 109 66 82 79 71 18 37 70 70 66 73 100 69 99 145 186
22 34 55 76 90 92 91 73 62 63 51 40 42 46 49 37 34 44 35 49 62 65 71 73 74 75 95 104 103 90 69 42 47 40 61 88 91 99 79 81 91 96 97
43 72 98 117 142 154 124 105 80 76 64 61 61 56 62 58 52 62 58 57 67 66 65 64 80 72 75 78 110 155 159 155 117 69 90 81 67 62 38 58 47 65 83
55 65 123 144 189 221 159 119 89 81 69 61 65 56 64 63 64 64 61 71 86 101 94 76 80 81 76 72 98 130 161 153 136 112 100 72 47 48 54 54 41 60 68
44 67 102 187 228 243 175 138 103 96 84 77 80 72 72 69 71 68 83 99 115 123 104 97 91 85 55 44 75 75 77 92 115 118 103 122 139 141 86 53 78 67 82
82 86 84 164 219 242 223 147 128 111 105 88 103 97 97 87 73 76 85 105 105 96 103 115 128 87 91 64 58 53 74 80 68 60 60 69 94 120 149 131 87 83 88
105 118 155 228 256 282 245 166 126 138 151 152 159 145 134 123 121 101 100 95 90 89 99 106 109 112 122 127 100 84 76 62 78 81 87 95 106 100 96 93 110 108 86
116 117 134 190 235 258 237 194 160 185 149 148 169 160 148 134 117 143 185 148 124 95 105 84 108 152 178 151 89 70 64 65 86 94 94 99 104 104 96 95 95 102 119
129 125 116 147 197 218 209 211 305 236 247 210 224 195 124 124 135 188 171 176 151 119 98 98 118 150 151 134 115 72 57 87 97 106 101 91 79 67 50 53 65 66 81
132 123 113 115 145 145 113 121 127 106 115 180 112 96 84 109 113 119 134 139 128 127 100 127 106 86 94 70 68 89 100 96 85 77 71 63 60 66 76 68 81 71 80
119 108 101 97 124 130 143 132 103 131 108 99 58 75 68 102 92 99 103 102 73 63 83 71 72 73 78 82 78 68 61 63 76 71 67 64 63 61 67 61 68 73 88
102 67 50 64 95 83 95 149 198 121 132 134 137 109 133 124 109 118 105 83 78 43 64 73 82 81 72 63 62 63 68 76 77 71 70 67 62 59 61 66 67 80 94
105 78 74 81 90 87 101 94 97 158 211 193 153 126 98 90 107 124 119 116 91 50 76 84 74 58 57 59 59 60 67 78 60 66 62 53 47 52 41 58 58 59 66
88 62 60 71 69 57 56 58 62 70 82 93 118 114 116 111 100 93 102 95 85 70 66 59 53 49 50 52 50 60 65 57 55 49 53 48 44 41 47 53 57 60 48
62 72 68 51 39 28 24 29 36 43 55 66 68 73 100 111 95 79 43 60 61 47 38 46 52 55 56 52 49 40 37 45 47 46 48 46 44 43 53 51 54 38 19
63 56 39 30 15 14 4 6 9 14 27 46 56 75 76 65 64 41 23 21 23 30 31 42 56 57 56 48 40 40 38 37 40 38 42 39 35 33 39 47 35 20 20
34 22 26 27 30 27 27 31 30 21 22 30 36 49 56 39 34 30 21 23 21 28 29 38 50 55 48 38 38 37 38 36 37 35 33 33 30 27 30 30 12 12 35
19 20 19 24 25 18 16 17 14 13 11 18 20 28 29 10 18 25 28 23 34 39 42 44 41 43 40 39 40 31 33 33 36 30 28 31 26 21 20 16 9 25 31
10 18 16 18 23 32 37 25 25 19 9 15 15 28 39 26 25 25 28 36 40 46 52 47 39 48 40 36 32 33 25 25 24 28 26 31 25 21 22 19 14 24 20
1 8 16 24 34 41 47 52 45 40 21 11 12 18 16 14 12 19 34 46 54 55 58 53 43 40 51 32 29 27 30 29 32 35 32 28 25 40 28 29 27 31 16
13 11 1 1 10 18 32 47 56 63 68 54 32 41 44 32 27 29 37 52 64 63 56 48 38 35 31 29 30 23 60 72 34 53 42 31 31 37 33 33 35 25 15
31 37 27 23 24 30 41 49 70 92 89 77 68 68 79 84 85 82 91 82 83 78 70 70 46 25 23 30 33 49 106 74 55 45 40 45 44 41 39 39 45 33 29

GFSGL_con_3kmhel_021.txt.gz
Helicity
34 38 30 28 19 30 31 55 24 18 5 6 -0 -0 3 16 40 52 58 56 64 65 67 62 59 51 54 52 56 63 70 68 81 98 113 124 151 130 136 175 204 229 183
43 43 28 31 16 26 31 55 45 18 13 6 -4 -3 6 7 16 38 47 60 68 79 70 39 48 41 46 59 73 78 87 87 99 90 120 137 150 137 132 109 106 139 93
41 44 32 36 33 46 33 28 40 21 31 15 4 -2 6 17 23 30 36 51 71 71 65 66 74 79 87 93 101 116 118 134 138 142 193 158 108 74 156 122 87 71 87
42 49 55 32 53 51 35 33 44 19 36 28 12 3 9 24 28 24 32 43 57 70 82 79 81 86 69 62 72 87 124 120 97 91 97 124 114 93 69 73 76 90 106
26 37 82 48 70 90 51 50 55 38 39 41 29 17 12 25 24 22 32 42 51 67 71 74 84 79 102 71 49 78 80 84 77 95 123 85 92 83 67 41 102 106 117
12 25 59 115 141 139 93 86 114 59 48 43 38 38 28 26 28 28 18 38 53 62 69 65 53 63 83 71 81 99 69 38 62 69 73 87 83 70 66 69 75 55 67
5 25 52 136 124 158 112 126 146 95 76 58 49 41 48 41 36 23 14 37 52 69 71 68 75 65 54 64 43 70 108 107 102 87 101 91 79 68 57 54 57 65 69
47 65 101 134 110 178 121 194 163 114 96 79 65 54 51 48 32 17 20 61 87 99 87 86 85 89 109 84 83 98 118 140 116 91 91 87 89 84 61 64 73 83 70
96 83 107 117 117 182 155 226 171 153 119 90 82 70 64 70 59 46 60 82 113 129 116 141 96 97 92 99 70 91 96 83 71 67 61 63 87 92 66 13 43 30 36
119 113 106 109 120 141 180 192 206 157 116 106 139 123 117 98 107 70 75 72 96 108 104 128 153 108 91 111 76 66 93 90 70 49 41 38 55 82 115 147 116 98 96
115 123 125 143 181 196 233 248 182 145 149 152 124 114 130 115 106 101 108 115 76 98 88 83 100 110 99 123 128 94 80 34 -18 11 14 21 29 55 78 102 148 150 153
139 151 156 173 175 220 284 268 232 169 166 153 87 150 133 142 170 176 177 169 196 142 108 100 86 75 111 117 94 76 42 2 19 58 67 63 59 51 48 58 78 98 149
168 178 181 165 150 164 184 202 199 166 174 219 166 130 169 163 155 162 176 179 180 124 120 117 99 51 52 82 52 28 33 38 65 63 62 51 52 53 32 29 46 45 55
179 167 148 144 141 147 156 153 114 117 147 171 119 114 148 135 145 103 116 147 180 144 86 78 47 52 100 83 31 58 90 87 73 63 58 54 44 42 45 36 38 27 43
129 127 122 111 113 111 123 114 109 87 96 97 112 147 151 152 104 135 108 81 95 75 57 28 -9 25 59 65 71 61 42 35 50 53 49 46 48 40 45 43 48 44 57
102 94 88 82 77 79 84 116 156 120 137 142 156 144 122 123 131 120 124 102 73 65 34 10 63 73 77 84 58 42 40 36 54 54 53 52 53 51 52 44 41 56 68
98 81 72 54 66 64 66 71 95 107 111 110 107 116 124 113 124 106 91 69 45 26 36 83 86 76 74 58 47 43 51 83 55 59 56 50 54 57 32 47 48 45 61
90 61 61 63 61 55 51 43 38 34 63 85 80 85 104 100 95 78 67 44 56 59 70 86 67 61 49 50 49 53 73 52 47 57 51 51 52 37 36 47 41 49 49
60 78 78 81 80 65 62 68 79 73 81 83 74 61 87 83 70 52 48 49 60 77 56 49 44 49 44 55 62 78 79 78 80 54 42 41 41 21 40 41 62 54 36
110 113 69 52 40 53 57 62 58 45 28 36 10 58 65 50 46 45 35 20 17 20 38 36 52 49 61 76 64 54 58 47 42 41 33 40 32 25 30 42 31 41 48
76 46 20 44 54 55 53 46 40 27 22 25 25 84 107 -4 -4 37 21 28 21 22 39 39 41 56 61 63 50 42 40 35 45 42 38 41 28 30 34 35 27 32 20
52 18 26 65 46 17 33 27 20 26 24 19 36 75 58 -15 -24 22 36 38 40 55 50 53 33 30 35 65 78 69 37 38 45 52 47 35 35 36 33 34 31 31 16
37 29 27 21 9 39 -14 -0 18 25 20 32 35 72 63 26 8 10 27 38 52 50 48 57 42 20 32 59 64 72 44 43 51 59 53 43 39 40 38 37 37 39 31
29 15 20 3 56 12 20 14 41 28 27 24 26 63 62 59 62 54 55 42 38 65 73 60 51 17 8 34 60 65 50 49 56 64 68 52 42 48 46 39 38 38 41
33 26 35 59 30 60 63 48 24 13 34 77 64 57 67 38 36 39 46 80 105 125 127 121 88 68 53 28 -16 4 156 172 130 145 76 50 46 47 50 50 50 47 45
75 44 63 108 56 51 50 33 43 57 63 50 46 80 63 49 38 44 64 102 83 65 64 111 77 76 82 59 76 61 157 144 122 116 73 49 51 52 52 51 47 54 50

GFSGL_con_3kmhel_024.txt.gz
Helicity
35 35 36 33 76 38 46 51 39 25 8 2 -6 -9 1 12 23 38 49 48 61 61 74 71 73 71 71 83 85 69 64 62 75 93 129 149 129 103 96 107 118 76 128
54 35 32 59 77 44 54 42 38 32 16 3 2 -1 0 -1 10 19 30 33 40 43 60 65 74 52 74 87 75 85 94 85 78 70 134 160 156 161 145 132 142 122 102
47 32 23 98 80 62 53 43 37 38 30 11 8 13 24 16 13 7 9 21 36 44 46 60 68 74 74 79 74 81 93 113 127 134 148 133 130 133 170 111 115 127 67
21 39 45 106 74 75 64 62 47 45 38 25 8 2 16 32 23 8 9 14 20 35 53 64 59 55 48 54 67 63 72 94 102 130 106 95 112 102 75 72 83 81 82
47 42 65 116 161 99 100 103 72 61 45 26 22 27 29 29 28 2 3 8 19 31 37 39 43 45 49 36 31 63 67 93 89 98 86 77 92 71 87 70 64 77 103
33 52 67 146 167 139 161 139 91 70 51 56 41 63 49 31 57 63 13 16 19 21 34 34 30 55 64 73 89 106 88 52 61 62 63 83 89 81 58 67 49 41 57
39 43 71 78 137 140 176 203 125 89 87 78 75 63 53 37 50 55 54 21 32 48 63 48 65 65 41 46 86 130 166 132 107 96 96 85 76 67 63 43 49 56 50
104 95 126 132 110 117 193 221 190 118 132 110 78 63 59 57 71 84 58 51 82 107 104 67 71 85 89 56 66 91 111 116 94 74 75 74 82 69 62 41 39 59 40
121 117 97 110 124 115 268 225 183 139 158 140 102 81 72 69 80 88 111 85 82 86 97 123 93 82 79 47 46 49 60 60 75 60 46 50 66 93 78 42 79 31 31
156 128 103 99 93 111 218 219 186 144 160 179 188 143 132 85 103 100 107 50 71 89 111 86 129 91 91 126 43 60 81 49 71 28 5 1 38 74 127 127 157 128 99
139 129 128 131 131 177 219 247 206 140 181 159 147 132 116 131 128 139 210 133 70 145 114 83 81 86 92 108 122 126 80 35 17 13 -2 -33 -3 57 65 100 154 122 219
132 153 156 152 168 195 242 268 262 229 212 161 130 145 126 134 163 181 196 216 225 192 122 82 71 76 86 92 87 77 59 56 56 37 102 89 100 23 34 47 57 79 113
152 157 166 154 154 167 179 190 229 259 249 173 137 137 109 116 141 173 164 178 161 163 121 100 94 71 47 77 61 74 95 130 93 128 102 54 42 30 35 27 40 22 58
149 144 126 122 124 127 136 136 151 159 149 103 127 146 109 118 135 123 133 113 169 122 89 74 36 23 -6 38 69 74 84 114 148 133 90 56 31 35 46 42 34 33 73
128 117 106 85 90 103 117 104 102 108 87 92 84 101 95 109 115 88 68 106 92 76 70 59 32 15 2 10 59 73 73 90 82 77 83 77 64 39 44 35 28 28 66
72 87 72 67 74 80 79 92 123 108 121 116 103 86 90 101 71 69 95 97 98 87 55 52 55 51 93 129 95 59 62 46 89 83 72 75 71 54 69 39 37 51 75
97 57 43 54 62 52 40 44 48 64 91 99 96 103 114 109 91 92 88 78 47 52 68 101 102 122 119 101 72 69 96 104 82 69 74 62 62 52 57 45 41 39 42
57 12 28 43 32 20 11 22 14 -11 41 53 50 61 82 78 72 76 77 53 59 42 24 104 127 105 85 68 72 81 87 61 51 69 70 64 60 60 56 42 47 54 62
46 86 98 102 91 62 57 74 84 76 74 65 46 18 32 43 43 38 42 42 39 51 58 75 69 74 56 60 76 82 90 98 95 111 70 42 56 58 67 44 58 62 52
121 106 55 30 19 41 48 56 49 33 10 34 32 81 46 29 23 30 23 20 38 23 39 49 55 85 91 97 102 76 55 56 58 58 56 63 59 55 61 65 51 59 56
64 26 -13 35 75 71 66 69 44 37 38 41 81 80 85 33 -18 50 49 51 11 23 47 73 57 71 104 103 104 71 40 40 56 62 59 64 69 57 58 61 50 39 44
59 22 14 93 30 15 22 9 -2 10 11 26 114 109 102 28 20 23 41 50 55 70 71 62 48 42 44 65 124 131 84 67 45 48 58 61 65 68 59 62 56 45 43
19 31 46 33 26 34 25 -14 -5 54 44 31 56 145 110 70 32 7 15 39 81 107 132 114 89 75 50 33 53 83 88 74 48 43 75 89 74 64 69 70 63 57 52
15 48 75 80 68 31 32 45 73 25 27 42 54 104 86 83 49 56 77 99 125 125 106 173 154 86 74 61 49 58 79 86 66 39 67 98 93 75 70 79 65 51 41
92 98 60 53 62 41 68 72 48 23 57 60 34 59 52 54 49 54 62 84 139 134 79 64 133 127 88 113 114 68 86 75 77 110 130 99 67 53 67 62 72 85 67
52 75 129 92 152 190 156 119 96 92 87 77 85 42 28 38 35 43 66 120 102 83 109 102 142 141 216 41 154 163 107 216 149 127 129 117 88 63 32 48 52 67 70

GFSGL_con_3kmhel_030.txt.gz
Helicity
2 9 16 42 50 38 21 30 22 4 10 7 8 2 5 17 30 38 47 53 59 67 71 55 71 70 82 81 65 48 37 66 123 145 151 136 129 129 142 166 184 179 179
10 3 29 51 53 46 27 27 36 24 11 10 11 11 3 6 18 28 39 35 41 45 41 40 26 30 71 71 76 94 80 77 121 168 135 124 150 159 163 185 176 162 162
-15 23 48 55 59 46 35 34 40 44 33 18 12 14 4 3 4 6 8 16 16 20 23 35 44 55 69 56 62 56 62 88 130 176 165 159 145 126 156 154 129 129 109
21 57 50 59 88 65 68 51 65 50 53 47 26 16 8 7 2 -8 -10 -5 4 11 23 39 56 57 45 43 55 55 65 102 146 159 164 130 128 98 98 91 99 99 116
29 47 43 78 144 118 77 94 81 73 71 61 49 34 23 9 -13 -7 -10 -5 5 30 45 51 53 67 89 77 46 52 57 69 94 117 118 121 105 75 78 82 113 101 101
17 35 86 127 203 153 99 87 115 110 95 72 55 57 44 19 -7 6 6 12 8 13 15 27 42 58 65 94 101 97 44 37 38 60 70 95 99 101 109 125 108 82 91
48 91 123 168 205 180 112 81 116 131 114 87 77 75 56 36 19 26 40 35 41 24 32 39 40 41 44 51 83 106 114 98 54 34 60 67 77 76 82 80 47 72 85
239 195 219 179 201 194 159 164 149 158 137 92 90 83 68 59 54 55 65 53 66 55 45 49 45 42 46 47 60 79 75 79 72 75 81 79 71 61 58 55 77 106 111
149 169 162 152 197 211 216 192 171 182 171 110 98 90 81 76 65 42 71 59 71 56 52 55 58 60 22 42 57 64 78 92 109 135 122 124 109 86 68 94 95 95 79
136 127 113 103 120 144 209 199 188 175 177 166 144 92 84 70 73 50 63 49 57 58 55 70 88 82 70 53 67 70 92 80 90 87 69 80 71 64 109 91 84 101 92
95 133 132 133 150 159 203 220 218 219 221 191 139 94 85 104 104 104 77 69 68 60 55 63 84 98 119 107 82 58 60 62 71 83 71 58 47 38 64 102 109 80 97
126 144 159 163 172 179 195 193 201 212 213 184 126 81 100 118 148 129 136 134 92 79 69 56 80 114 121 107 107 107 104 75 87 103 98 62 34 21 43 60 86 106 99
162 158 153 184 187 177 190 191 199 194 189 154 122 102 66 93 114 175 210 141 134 87 80 90 112 139 125 100 114 124 130 117 124 135 89 42 11 7 30 49 70 83 77
176 133 128 160 165 172 168 163 169 160 147 116 100 104 94 94 112 142 130 123 117 131 106 101 135 134 107 87 93 96 101 123 125 110 84 51 34 41 30 42 59 65 71
127 108 119 130 139 149 157 136 120 106 86 88 97 101 102 98 80 108 95 112 105 109 102 136 140 93 63 43 43 60 60 76 93 72 67 63 69 67 50 46 46 57 61
108 99 91 89 87 87 105 130 148 111 109 106 89 80 75 89 82 89 90 85 74 121 129 133 106 83 76 77 69 60 62 70 59 54 61 59 59 69 69 62 61 62 61
76 55 45 53 52 50 44 42 55 62 82 73 68 72 65 69 71 81 93 77 106 121 150 121 88 60 59 41 42 53 53 58 56 58 55 57 61 61 71 75 76 76 63
75 41 25 23 30 14 2 4 8 8 5 11 -13 8 24 34 37 46 60 82 94 123 113 83 50 35 27 37 34 39 45 54 64 71 82 77 80 80 69 80 72 68 74
51 34 24 39 25 -2 -12 -9 -6 5 5 8 -1 -10 -38 -33 -28 -21 2 40 57 61 51 30 14 34 28 43 44 44 52 51 41 52 62 67 66 83 75 78 73 69 69
44 8 7 -1 10 3 -2 10 15 22 17 -0 -16 -44 -60 -44 -48 -52 -50 -26 -9 16 17 18 34 37 40 55 60 63 56 52 49 36 49 63 63 60 62 60 78 70 63
67 59 52 35 17 -0 -16 8 32 56 41 15 -28 -47 -17 -18 -50 -41 -22 -21 -13 17 12 9 41 38 41 42 58 70 62 47 45 30 46 39 55 60 54 56 56 59 62
72 76 59 48 24 24 41 56 58 89 84 67 10 -8 22 8 -23 -21 -21 8 19 21 38 58 50 69 73 54 42 36 41 51 52 54 48 39 34 35 53 56 55 57 61
65 55 61 63 92 75 70 62 77 58 34 45 83 95 98 62 33 35 26 36 24 29 59 90 86 116 120 118 104 70 52 33 60 72 76 74 70 65 63 59 61 63 59
105 101 115 140 134 140 129 140 116 126 91 59 67 82 103 125 90 82 88 109 169 268 285 264 259 271 228 208 185 170 138 105 91 74 93 89 74 104 130 120 97 81 67
245 244 231 218 206 197 205 235 265 230 182 171 245 270 263 238 266 284 256 281 296 351 366 370 345 322 310 263 227 195 159 153 153 160 132 92 106 122 140 98 112 117 115
213 207 211 209 196 217 218 219 178 177 208 207 282 256 253 237 237 236 247 244 251 259 265 261 267 267 258 246 225 208 195 209 193 187 114 93 90 84 102 126 94 144 187

GFSGL_con_3kmhel_033.txt.gz
Helicity
7 31 19 34 32 39 41 22 -6 -2 8 11 6 6 13 16 15 35 35 37 31 40 56 31 65 53 39 20 6 35 40 84 91 94 124 150 132 115 124 138 140 136 135
-40 5 12 41 33 39 34 10 2 6 2 3 5 4 11 20 19 25 23 25 21 25 30 36 39 24 51 59 55 51 33 21 51 113 155 122 126 136 143 165 158 150 139
-8 -13 34 39 38 40 29 23 36 30 17 9 12 3 -0 2 4 15 10 11 24 21 24 37 43 52 62 52 62 65 62 65 105 122 144 115 132 131 139 136 120 109 120
-11 -8 34 47 50 37 44 52 50 44 36 28 17 15 8 5 -2 8 13 17 22 34 46 57 64 61 49 48 52 53 62 108 119 143 142 136 118 116 118 100 110 104 114
24 20 25 71 77 69 91 86 77 70 58 38 31 36 25 22 -1 2 1 2 5 19 26 25 32 51 78 69 48 56 60 77 89 105 114 112 112 93 72 75 91 83 106
5 19 32 88 122 103 95 93 107 115 66 50 45 47 42 28 3 21 8 8 21 22 30 42 45 64 65 93 100 93 61 50 65 72 78 86 90 82 88 78 93 80 86
-10 38 77 105 198 149 79 103 122 115 86 69 62 60 48 39 31 49 45 32 32 28 33 32 34 38 55 69 112 130 129 106 59 39 62 70 76 73 79 90 98 89 86
53 74 87 172 206 183 119 118 159 137 112 86 76 57 54 60 48 52 55 36 35 42 47 42 44 45 47 54 78 109 119 127 109 88 87 83 73 68 63 70 85 93 99
88 52 53 110 171 201 139 137 177 176 121 111 85 75 73 70 43 34 52 37 29 38 52 57 49 31 33 56 69 78 88 85 81 108 113 111 113 73 76 82 82 99 95
-22 -5 48 118 125 156 168 212 186 190 164 150 123 93 65 52 49 27 58 43 41 48 49 63 75 67 47 88 78 62 75 38 32 44 63 85 87 73 88 80 87 102 108
71 68 72 105 80 101 202 233 229 190 178 166 143 92 87 75 78 70 59 54 63 62 51 63 74 85 96 89 82 65 58 49 51 58 62 61 59 55 65 85 85 85 106
184 148 112 112 84 130 212 234 234 184 182 151 124 91 77 87 119 118 48 92 107 75 71 77 76 106 127 132 91 70 55 83 99 80 72 58 42 25 33 50 55 60 75
181 154 143 138 138 179 217 211 195 187 188 162 111 87 68 61 87 119 160 155 149 89 85 99 110 111 130 121 107 90 77 82 95 100 70 49 37 15 10 26 43 62 69
129 129 147 143 171 193 191 193 181 174 164 133 104 86 87 74 87 108 112 129 126 95 104 107 91 110 119 73 60 80 73 65 76 83 75 58 47 47 41 42 52 63 69
111 112 126 143 164 182 188 167 162 138 113 103 83 90 94 90 82 84 81 108 85 92 112 107 104 95 59 56 69 74 80 84 85 68 60 55 55 65 69 70 64 64 70
95 89 107 128 145 131 129 160 187 140 128 116 89 75 70 84 91 80 74 84 100 99 127 98 75 74 69 56 64 62 59 56 53 57 61 65 74 74 80 84 80 79 69
94 95 102 121 106 99 97 96 105 102 109 107 101 93 87 71 71 77 84 105 92 101 93 79 65 49 38 36 41 35 33 33 43 53 63 67 68 68 68 70 79 77 78
95 88 87 76 84 72 57 69 70 69 66 53 44 41 41 44 46 54 61 79 70 74 51 45 38 34 36 30 18 18 22 30 44 44 48 57 66 73 76 76 82 84 80
80 71 74 84 75 54 53 64 57 51 47 43 14 -14 -13 -8 -11 -3 8 24 31 33 34 27 19 38 36 34 20 25 34 32 28 23 18 31 45 53 57 66 69 69 69
65 87 78 54 22 10 18 24 11 11 9 6 3 -15 -24 -22 -27 -33 -43 -24 -3 6 11 8 18 14 15 18 26 39 36 30 24 24 14 19 28 42 42 49 59 68 82
79 69 36 38 10 2 17 15 20 23 17 12 -6 -7 -12 -14 -29 -29 -26 -7 13 14 21 31 29 13 -4 25 36 37 36 21 29 39 43 27 20 32 38 46 49 52 58
93 73 30 -2 -0 13 11 19 24 42 36 44 21 18 24 9 -22 -13 -6 -10 -2 15 14 31 40 56 62 77 64 55 42 35 43 41 35 43 56 55 59 61 54 58 56
54 32 34 56 45 26 -0 6 1 14 1 5 49 56 62 68 67 46 44 36 36 43 66 106 173 185 195 199 180 146 122 93 76 76 76 74 77 87 95 91 88 105 105
11 57 100 105 68 73 94 91 87 88 73 75 86 105 116 107 81 114 111 136 160 184 213 259 282 271 265 262 247 200 175 140 124 124 120 128 115 94 94 104 117 128 143
117 125 135 137 148 166 181 168 159 181 167 127 151 175 231 210 186 162 173 174 187 207 230 234 235 237 242 244 231 209 190 195 188 171 156 160 154 133 107 91 78 102 114
183 208 219 188 198 200 176 153 173 166 165 170 211 212 235 202 190 176 159 168 178 181 185 186 193 204 216 222 225 204 167 154 153 163 140 141 136 119 103 93 86 85 85

GFSGL_con_3kmhel_036.txt.gz
Helicity
53 41 23 20 27 15 -1 -18 -15 -12 -15 -5 1 12 16 18 16 16 16 16 26 21 19 -4 1 -6 -10 -17 -18 -19 -17 14 50 39 92 95 111 99 104 111 118 105 109
149 20 5 34 33 18 -1 -5 -3 -3 -11 -14 -8 9 17 19 24 20 15 9 22 30 31 36 37 22 38 36 38 30 21 39 37 88 98 118 115 119 116 109 109 109 89
-83 -3 18 40 40 16 13 20 14 14 2 -1 -1 10 21 29 25 17 10 10 18 22 26 35 35 37 47 36 44 51 52 64 78 92 116 109 101 96 114 109 109 107 113
-9 3 11 47 51 40 37 49 35 32 27 21 11 8 15 25 21 12 10 15 20 24 31 39 42 42 40 43 44 44 52 64 75 111 118 108 90 84 89 85 98 98 92
2 11 24 47 60 86 60 55 64 65 55 36 25 24 22 20 9 11 15 19 19 24 41 51 59 57 71 53 31 35 40 52 69 88 94 96 102 92 84 75 92 75 96
-9 10 41 71 98 99 88 78 71 97 70 49 41 39 39 20 15 20 21 27 25 28 28 31 38 58 55 78 82 90 57 37 48 49 57 72 71 82 67 98 70 98 73
-40 -26 23 88 84 101 138 123 95 100 92 66 49 43 46 31 34 41 40 33 36 36 35 34 47 49 44 44 84 106 114 105 74 40 66 63 67 67 73 75 74 85 80
-50 -4 29 83 101 120 170 148 124 134 125 86 67 59 50 53 45 52 47 41 42 43 46 47 47 50 49 42 58 85 100 112 92 74 79 63 59 57 59 59 72 86 87
27 55 62 43 66 125 152 165 158 168 144 94 71 73 70 61 37 44 43 29 33 44 51 49 37 37 40 30 52 65 68 67 64 93 101 105 108 96 78 69 85 84 95
80 93 70 56 77 94 132 177 145 179 149 114 133 117 92 64 45 28 43 38 51 35 42 63 69 50 61 51 44 48 56 35 39 50 63 79 66 61 82 74 69 73 92
106 72 72 79 65 80 133 208 233 198 186 137 148 120 94 83 67 45 66 59 59 52 75 59 55 73 87 81 65 56 42 44 49 53 60 49 39 45 54 77 81 73 83
113 70 45 60 80 79 151 223 251 205 193 152 128 123 99 83 73 86 89 101 73 93 83 55 54 64 103 89 76 85 66 66 67 73 68 63 53 45 47 55 52 48 48
89 115 97 103 113 113 155 205 217 203 180 151 108 113 94 62 55 82 113 100 114 104 61 68 58 81 73 60 94 77 62 63 71 76 65 58 52 44 31 33 32 38 44
102 90 104 125 136 150 188 189 185 167 159 128 114 98 70 74 81 56 81 96 100 118 70 109 70 85 92 60 54 61 57 57 59 61 54 47 42 46 47 53 50 49 46
87 84 96 128 115 155 203 181 166 146 133 125 99 81 75 75 73 85 79 66 72 70 62 44 64 68 53 60 62 62 59 59 57 51 52 52 52 54 57 58 59 57 60
99 94 102 95 103 136 155 190 229 179 167 140 117 76 71 98 96 99 100 75 66 34 64 66 70 70 70 59 55 46 42 44 45 46 49 53 57 61 64 64 62 63 62
102 98 96 81 91 116 121 124 152 152 155 149 123 111 93 88 88 83 82 88 84 53 71 74 63 54 47 42 38 32 31 28 25 30 34 40 47 53 58 59 58 60 62
108 100 80 79 93 94 83 84 75 73 79 76 86 80 84 80 78 71 66 60 53 63 59 44 38 39 39 36 33 26 20 26 28 24 21 22 28 33 38 44 55 54 59
93 88 88 94 89 85 83 72 62 69 69 59 42 41 43 44 37 30 24 23 34 35 33 26 22 27 25 30 38 34 26 22 23 19 11 9 17 25 27 26 33 38 45
110 118 111 91 62 40 48 50 39 43 49 45 31 17 17 16 8 -5 -15 4 16 22 23 22 26 25 27 14 12 22 21 19 20 23 22 26 28 26 29 31 38 41 43
100 89 70 51 39 14 -1 14 -10 3 11 14 18 10 12 9 1 -12 -11 -10 -6 -2 12 27 33 38 41 50 46 46 31 32 32 38 43 44 46 39 52 54 48 47 52
83 67 35 16 26 3 -18 -3 -1 3 7 11 15 13 31 13 19 15 16 16 5 -2 3 17 51 81 96 99 106 99 89 87 84 74 67 66 71 73 76 71 73 74 73
76 44 31 -1 -7 -14 -1 28 8 20 23 3 15 37 76 64 70 46 41 42 57 68 77 108 145 183 181 177 182 176 163 141 125 115 97 91 96 104 106 95 81 78 87
86 62 42 31 33 22 27 28 14 3 7 40 64 55 63 83 117 110 127 114 105 111 129 146 163 178 181 190 192 194 182 154 127 131 122 118 114 115 111 108 110 99 93
88 61 54 59 57 64 73 75 70 76 105 102 102 103 102 151 154 159 143 147 141 150 158 161 162 178 192 202 202 200 178 147 133 105 120 126 132 130 125 116 116 103 89
90 108 85 99 126 115 115 134 128 128 122 120 126 127 163 200 159 175 131 131 144 146 153 158 169 180 183 181 178 150 108 98 114 117 110 117 118 116 108 109 111 103 101